Погода в Сызрани

Погода в Сызрани : погода сейчас, прогноз погоды и архив. Всё, что Вы хотите узнать о погоде в Сызрани!

Хотите узнать прогноз погоды в Сызрани? Тогда Вам сюда: Погода в Сызрани

Поиск расширенной информации на нашем сайте:

Полезная информация: Актуальная информация горящие туры в Турцию, цены на путевки в Турцию здесь. - Poisk-toura.com

Другие новости

Новости СМИ2

Главная страница сайта

Новости сайта

02.10.2013

Напоминаем, что на нашем новом сайте вы можете получить высокодетализированные прогнозы погоды по пунктам России, СНГ и мира (включающие важные для авиации метеовеличины, такие как направление и скорость ветра, видимость, явления погоды, количество и форма облачности, нижняя и верхняя граница облачности), а также ознакомиться с разнообразными материалами по авиационной метеорологии и подборкой полезных ссылок на эту тему.

Сайт Метеоцентр.Азия посвящён разработке технологий оптимизации авиаметеорологического обслуживания, включая проектирование и перспективное создание нескольких автоматизированных авиаметеорологических систем:
- система выпуска высокодетальных прогностических карт явлений погоды для нижнего воздушного пространства по России и ближнему зарубежью;
- система верификации прогнозов TAF (выпускаемых синоптиками официальных АМСГ РФ и ближнего зарубежья) и AUTOTAF (выпускаемых сайтом Метеоцентр.Азия) - выявление ошибок, онлайн-сопоставление с фактической погодой METAR, автоматическое внесение коррективов в прогнозы при резком отклонении фактической погоды от прогноза, подсчёт оправдываемости прогнозов по элементам и в целом;
- система обработки, анализа и отображения авиаметеорологической информации для применения провайдерами метеорологической информации.

Рекомендуем: Оплата тура онлайн купить тур онлайн. - Guru-tour.ru

Погода в Сызрани - сегодня

Время (UTC), дата Ветер
(°,м/с) 
Видим.   Явления Облачность Т
(°С)
Тd
(°С)
f(%) Тe
(°С)
Pmin
(гПа)
dP
(гПа)
Po
(мм)
O2
(г/м3)
Тmin Tmax R s Состояние
почвы
03 25.05.17 230 (ЮЗ) 20000 м    ясно 
+14.8 +9.7 71 +17  1016.9  0.4  753  286  +9.2        влажная 
06 25.05.17 140 (ЮВ) 20000 м    1/1 1000 м кучево-дожд. 
[Cb calv]
+21.1 +12.8 59 +26  1017.1  0.5  754  279           
09 25.05.17 140 (ЮВ) 20000 м    8/6 600 м кучево-дожд., верхняя 
[Cb calv|Ci fib]
+24.4 +11.6 45 +28  1016.2  -0.8  753  276           
12 25.05.17 140 (ЮВ) 20000 м    8/6 600 м кучево-дожд., верхняя 
[Cb calv|Ci fib]
+23.1 +9.9 43 +24  1015.4  -0.9  752  278           
15 25.05.17 190 (Ю) 20000 м    3/3 600 м кучево-дожд., верхняя 
[Cb calv|Ci fib]
+24.1 +7.4 34 +24  1014.5  -0.8  752  277    +25.6       
18 25.05.17 220 (ЮЗ) 20000 м    4/3 600 м кучево-дожд., верхняя 
[Cb calv|Ci fib]
+18.3 +9.9 58 +21  1015.6  0.9  753  282           
21 25.05.17 330 (СЗ) 22000 м    ясно 
+11.3 +10.1 92 +13  1015.9  753  289           
00 26.05.17 тихо ()   20000 м    ясно 
+9.1 +7.7 91 +9  1015.7  -0.3  752  292           
03 26.05.17 280 (З) 20000 м    ясно 
+15.6 +11.1 75 +20  1015.4  752  285  +8.8        сухая 
06 26.05.17 170 (Ю) 20000 м    5/3 600 м верхняя 
[Sc diur, vesp|Ci fib]
+20.8 +12.3 58 +25  1015  -0.2  752  279           
09 26.05.17 150 (ЮВ) 20000 м    8/3 1000 м верхняя 
[Sc diur, vesp|Ci fib]
+23.4 +9.1 40 +23  1013.7  -1.2  751  277           
12 26.05.17 160 (Ю) 20000 м    10/3 1000 м верхняя 
[Sc diur, vesp|Ci fib]
+24.2 +5.6 30 +24  1011.9  -1.7  750  277           
18 26.05.17 290 (З) 20000 м    10/3 600 м средняя, верхняя 
[Sc|Ac trans|Ci fib]
+16.9 +10.4 65 +20  1011.1  -0.3  749  282           
21 26.05.17 тихо ()   20000 м    5/0 верхняя 
[Ci fib]
+12.9 +10.8 87 +15  1010.3  -0.9  749  286           
00 27.05.17 260 (З) 20000 м    9/9 600 м 
[Sc]
+12.2 +11.1 93 +16  1009.5  -0.8  748  286           
03 27.05.17 260 (З) 20000 м    10/3 600 м кучево-дожд., средняя, верхняя 
[Cb calv|Ac trans|Ci fib]
+14.8 +11.5 81 +18  1008.8  -0.6  747  284  +11.9        сухая 
06 27.05.17 240 (ЮЗ) 20000 м    8/8 600 м кучево-дожд., средняя, верхняя 
[Cb calv|Ac trans|Ci fib]
+19.3 +12.4 64 +25  1007.8  -0.8  747  279           
09 27.05.17 250 (З) 20000 м  гроза без осадков  9/8 600 м кучево-дожд., средняя, верхняя 
[Cb calv|Ac trans|Ci fib]
+20.7 +11.5 56 +24  1007.1  -0.7  746  277           
15 27.05.17 310 (СЗ) 3{11}  20000 м  {гроза, ливн. осадки}  10/10 600 м кучево-дожд. 
[Cb calv]
+17.3 +11.4 68 +21  1006.9  1.2  746  281    +24.6     
18 27.05.17 320 (СЗ) 15000 м  в посл. час ливневой дождь{гроза}  10/10 600 м кучево-дожд. 
[Cb calv]
+14.5 +12.7 89 +20  1007.7  0.7  747  283           
21 27.05.17 350 (С) 3{10}  17000 м    10/10 600 м кучево-дожд. 
[Cb calv]
+11.4 +8.3 81 +11  1009.2  1.4  748  288           
03 28.05.17 290 (З) 20000 м    1/0 верхняя 
[Ci fib]
+10.1 +6.3 77 +10  1011.6  0.7  749  290  +7.2    0.5    влажная 
06 28.05.17 240 (ЮЗ) 20000 м    8/6 600 м кучево-дожд., верхняя 
[Cb calv|Ci fib]
+13.3 +6.7 64 +13  1010.8  -0.7  749  287           
15 28.05.17 010 (С) 4-10{10}  10 км  слаб. ливневой дождь{гроза}  10/10 300 м кучево-дожд. 
[Cb cap]
+4.7 +4.4 98 +3  1010.3  748  296    +13.9  15     
03 29.05.17 340 (С) 20000 м    8/0 верхняя 
[Ci fib]
+5.2 -1.2 63 +4  1017.3  1.5  753  298  +0.9      мокрая 
Время (UTC), дата Ветер
(°,м/с) 
Видим.   Явления Облачность Т
(°С)
Тd
(°С)
f(%) Тe
(°С)
Pmin
(гПа)
dP
(гПа)
Po
(мм)
O2
(г/м3)
Тmin Tmax R s Состояние
почвы

Для получения пояснительной информации подведите курсор к названию столбца.

ПОГОДА в Сызрани - архив

Всё, что Вы хотите узнать о погоде в Сызрани - удобно и подробно!

Выберите нужную дату (начиная с 1 января 2015* года) и нажмите кнопку "Найти".
Будут отображены архивные сводки погоды по пункту Сызрань, начиная с указанной даты.


Отображать данные в формате CSV (для использования в таблицах Excel)


Внимание! Наш архив погоды предназначен исключительно для личного некоммерческого использования в познавательных целях. Если Вам необходимы официальные справки о состоянии погоды (для производственных, юридических, коммерческих и т.п. целей), обращайтесь в органы Росгидромета.

*Примечание: данная дата относится к архиву по метеостанциям СССР (Россия, СНГ, Балтия).
Архив по метеостанциям Зарубежной Европы и Азии (кроме Китая) хранится 10 дней, по другим регионам земного шара (Китай, Африка, Америка, Австралия, Океания) - 1 день.

Сызрань - район местоположения метеостанции


Название, широта, долгота, высота метеостанции:
Сызрань 53.2°ш. 48.4°д. 103 м над ур. моря [Российская Федерация]

Дополнительная информация

В oтличие oт бoльшинства пoгoдных сайтoв мы публикуем пoдрoбную метеoинфoрмацию в детальнoм прoфессиoнальнoм фoрмате.

Характеристики температуры и влажнoсти вoздуха измеряются на высoте 2 м в тени вдали oт зданий и деревьев.
Скoрoсть ветра измеряется на высoте 10 м (на урoвне рoста челoвека скoрoсть ветра ниже в 1.5-2 раза). Если метеoстанция нахoдится в гoрoде или в лесу, тo скoрoсть ветра занижена на 2-4 м/с пo сравнению с oткрытым местoм. Скoрoсть ветра над акватoриями крупных рек и oзёр, а также на вершинах хoлмoв на 2-5 м/с выше, чем в oбычных услoвиях.
Атмoсфернoе давление в разных тoчках местнoсти мoжет значительнo oтличаться oт давления на метеoстанции, в зависимoсти oт услoвий рельефа (при пoдъёме на 10 м давление пoнижается примернo на 1 мм рт.ст.).